This demonstration page uses our WeatherBlox Daily Observations layout. Learn more.

Left ArrowRight Arrow

41.55636, -103.73856

Hourly Observations for September 24, 2021

Temp ( °F °C ) Dew Point ( °F °C ) Humidity (%) Winds ( mph kmh ) Pressure ( in mb ) Visibility ( mi km ) Precip ( " mm )
12:58 am 00:58 Mostly Cloudy 55 12.8 32 0.2 42 42 SSW 5 7 30.05 1018 10 16 N/A
1:58 am 01:58 Mostly Cloudy 55 12.8 33 0.4 43 43 SW 5 7 30.06 1018 10 16 N/A
2:58 am 02:58 Mostly Cloudy 51 10.8 34 1.1 51 51 NW 5 7 30.11 1020 10 16 N/A
3:58 am 03:58 Mostly Cloudy 52 11.1 34 1.2 51 51 W 3 6 30.12 1020 10 16 N/A
4:58 am 04:58 Mostly Cloudy 52 11.2 34 1 50 50 WSW 5 7 30.11 1020 10 16 N/A
5:58 am 05:58 Clear 50 9.8 34 0.9 54 54 WNW 3 6 30.14 1021 10 16 N/A
6:58 am 06:58 Sunny 47 8.4 34 1.1 60 60 WSW 5 7 30.17 1022 10 16 N/A
7:58 am 07:58 Sunny 48 9.1 36 2.1 62 62 W 3 6 30.19 1022 10 16 N/A
8:58 am 08:58 Sunny 57 13.7 37 2.7 48 48 WNW 9 15 30.17 1022 10 16 N/A
9:58 am 09:58 Sunny 61 16.2 37 2.8 41 41 NW 8 13 30.18 1022 10 16 N/A
10:58 am 10:58 Sunny 65 18.5 33 0.8 31 31 NNE 9 15 30.18 1022 10 16 N/A
11:58 am 11:58 Sunny 67 19.4 34 1.2 30 30 N 7 11 30.18 1022 10 16 N/A
12:58 pm 12:58 Sunny 68 20 34 0.9 28 28 NW 7 11 30.16 1021 10 16 N/A
1:58 pm 13:58 Sunny 69 20.5 33 0.5 26 26 WNW 5 7 30.13 1020 10 16 N/A
2:58 pm 14:58 Sunny 71 21.9 33 0.4 24 24 NW 8 13 30.12 1020 10 16 N/A
3:58 pm 15:58 Sunny 72 22.2 33 0.6 24 24 NNE 8 13 30.10 1019 10 16 N/A
4:58 pm 16:58 Sunny 71 21.8 32 -0.1 23 23 N 6 9 30.09 1019 10 16 N/A
5:58 pm 17:58 Sunny 69 20.7 33 0.4 26 26 NW 6 9 30.11 1020 10 16 N/A
6:58 pm 18:58 Clear 67 19.5 31 -0.3 27 27 N N/A 30.13 1020 10 16 N/A
7:58 pm 19:58 Clear 57 13.8 34 1.2 43 43 ESE 13 20 30.16 1021 10 16 N/A
8:58 pm 20:58 Clear 58 14.6 36 2 43 43 SSE 18 30 30.15 1021 10 16 N/A
9:58 pm 21:58 Clear 56 13.5 35 1.9 46 46 S 20 31 30.13 1020 10 16 N/A
10:58 pm 22:58 Clear 56 13.3 36 2.1 47 47 S 20 31 30.12 1020 10 16 N/A
11:58 pm 23:58 Clear 53 11.4 36 2.3 54 54 S 13 20 30.14 1021 10 16 N/A

Powered by AerisWeather